Location: Erfurt
(50.9688°N, 11.0193°E)
Time: 20:12:12
(UTC+01:00)

ISS - Pass Details

Date: 11 January 2018
Orbit: 401 x 407 km, 51.6° (Epoch: 17 January)

Event Time Altitude Azimuth Distance (km) Brightness Sun altitude
Exits shadow 05:42:11 41° 122° (ESE) 598 -2.6 -23.2°
Drops below altitude 10° 05:44:29 10° 112° (ESE) 1,464 0.0 -22.8°
Sets 05:46:34 0° 110° (ESE) 2,324 1.4 -22.5°
